Location: ?ejkovice
(49.0137°N, 14.3821°E)
Time: 21:58:27
(UTC+00:00)

SL-16 R/B - Pass Details

Date: 23 May 2024
Orbit: 985 x 1007 km, 99.7° (Epoch: 20 June)

Event Time Altitude Azimuth Distance (km) Brightness Sun altitude
Rises 00:05:05 0° 122° (ESE) 3,728 5.4 -18.8°
Reaches altitude 10° 00:07:55 10° 111° (ESE) 2,782 4.8 -18.7°
Maximum altitude 00:13:01 27° 56° (ENE) 1,823 4.5 -18.4°
Drops below altitude 10° 00:18:08 10° 2° (N) 2,794 6.0 -18.2°
Sets 00:20:58 0° 351° (N) 3,746 6.6 -18.0°
